Meath Environmental Platform

Observations for Trim Patrick St

Time AQI Temp °C Hum % Pres Pa CO μg/m³ H₂S μg/m³ NO μg/m³ NO₂ μg/m³ O₃ μg/m³ SO₂ μg/m³ PM1 μg/m³ PM2.5 μg/m³ PM10 μg/m³
Friday 28 August 2026
03:20 3 16.5 88 38,460 0.15 1.24 1.47 13.94 31.01 0 8 14.96 16.45
03:19 3 16.5 88 38,460 0.15 0.64 1.59 12.24 35.5 0 9.71 14.96 16.45
03:18 3 16.5 88 38,460 0.15 0.53 1.5 11.79 39.51 0 10.57 14.27 15.7
03:17 3 16.5 88 38,460 0.15 1.79 1.58 14.05 30.73 0 12.29 17.7 19.47
03:16 3 16.5 88 38,460 0.15 0.51 1.96 13.56 30.16 0 10.57 15.64 17.2
03:15 3 16.5 88 38,460 0.15 0.61 2.1 11.77 37.78 0 10.57 14.28 15.71
03:14 3 16.5 88 38,460 0.15 0.92 1.97 13.31 36.49 0 10.57 14.97 16.46
03:13 3 16.6 88 38,460 0.15 0.35 2.04 12.26 35.75 0 9.71 15.64 17.2
03:11 3 16.6 88 38,460 0.15 0.06 1.59 11.83 36.98 0 9.71 13.59 14.95
03:09 3 16.6 88 38,460 0.14 0.45 1.64 12.26 37.81 0 8 14.96 16.45
03:08 3 16.6 88 38,460 0.17 0.43 1.35 11.94 37.74 0 9.71 13.59 14.95
03:04 3 16.6 88 38,460 0.14 0.3 1.23 12.37 36.14 0 10.57 17.69 19.46
03:03 3 16.6 88 38,460 0.15 0.5 1.41 12.16 37.44 0 9.71 13.59 14.95
03:02 3 16.6 88 38,460 0.15 0.35 1.42 12.05 36.8 0 11.43 15.64 17.2
03:01 3 16.6 88 38,460 0.15 0.5 1.31 11.94 40.08 0 10.57 14.96 16.45
03:00 3 16.6 88 38,460 0.14 1.03 1.38 13.23 33.29 0 9.71 15.64 17.2
02:58 3 16.6 88 38,460 0.14 0.64 1.59 12.26 36.46 0 10.57 16.32 17.96
02:56 3 16.6 88 38,460 0.15 0.32 1.98 10.8 40.28 0 12.29 18.37 20.21
02:55 3 16.6 88 38,460 0.14 1.71 1.79 13.01 33.75 0 11.43 16.32 17.96
02:54 3 16.6 88 38,460 0.15 2.15 1.57 13.94 31.65 0 13.14 18.38 20.22